�N����,����,�~����,�C��,���x,�C��,����,���ϕ���,�ő�u�ԕ���,�ő厞����,���˗�,�I�_���x,�n�����x,�ő啗���N��,DTYPE
"23/06/15","00:10",0.0,21.7,93.0,1001.5,329.0,2.0,3.6,334.6,0.00,20.6,21.2,"00:09:36",1
"23/06/15","00:20",0.0,21.7,92.9,1001.7,319.7,1.8,3.1,335.1,0.00,20.5,21.6,"00:16:08",1
"23/06/15","00:30",0.0,21.7,92.8,1001.5,321.8,1.8,2.7,318.8,0.00,20.5,21.5,"00:28:16",1
"23/06/15","00:40",0.0,21.6,92.8,1001.5,341.2,1.0,1.7,327.1,0.00,20.4,21.5,"00:36:40",1
"23/06/15","00:50",0.0,21.5,92.8,1001.2,11.5,0.2,0.9,0.5,0.00,20.3,21.3,"00:40:24",1
"23/06/15","01:00",0.0,21.5,92.8,1001.5,319.5,1.2,1.8,329.7,0.00,20.3,21.4,"00:59:12",1
"23/06/15","01:10",0.0,21.4,92.9,1001.5,335.7,1.2,1.9,357.4,0.00,20.2,21.3,"01:06:48",1
"23/06/15","01:20",0.0,21.4,93.0,1001.5,337.1,1.2,2.7,342.3,0.00,20.3,21.4,"01:16:08",1
"23/06/15","01:30",0.0,21.4,93.0,1001.2,329.9,0.8,1.7,330.6,0.00,20.3,21.3,"01:20:32",1
"23/06/15","01:40",0.0,21.5,93.0,1001.5,336.6,1.2,2.1,340.4,0.00,20.4,21.4,"01:36:08",1
"23/06/15","01:50",0.0,21.4,93.1,1001.5,336.9,1.5,2.5,346.0,0.00,20.3,21.5,"01:47:28",1
"23/06/15","02:00",0.0,21.4,93.2,1001.5,335.2,1.5,2.4,342.0,0.00,20.3,21.2,"01:50:40",1
"23/06/15","02:10",0.0,21.4,93.3,1001.5,335.1,1.1,1.9,343.0,0.00,20.3,21.4,"02:02:08",1
"23/06/15","02:20",0.0,21.3,93.3,1001.2,336.7,1.1,2.1,342.2,0.00,20.2,21.5,"02:16:16",1
"23/06/15","02:30",0.0,21.3,93.4,1001.0,329.2,1.5,2.2,320.5,0.00,20.2,21.4,"02:28:48",1
"23/06/15","02:40",0.0,21.3,93.5,1001.5,327.7,2.2,3.2,334.7,0.00,20.2,21.3,"02:38:24",1
"23/06/15","02:50",0.0,21.4,93.5,1001.5,327.4,2.6,3.4,347.4,0.00,20.3,21.4,"02:48:48",1
"23/06/15","03:00",0.0,21.4,93.5,1001.2,325.9,2.3,3.6,346.0,0.00,20.3,21.3,"02:50:08",1
"23/06/15","03:10",0.0,21.4,93.5,1001.5,330.8,2.3,3.7,332.5,0.00,20.3,21.4,"03:07:08",1
"23/06/15","03:20",0.0,21.4,93.5,1001.5,330.1,2.1,4.1,337.3,0.00,20.3,21.1,"03:19:20",1
"23/06/15","03:30",0.0,21.3,93.5,1001.7,336.3,1.6,2.9,335.6,0.00,20.2,21.2,"03:21:20",1
"23/06/15","03:40",0.0,21.2,93.5,1001.7,332.0,1.2,2.0,339.0,0.00,20.1,21.2,"03:36:08",1
"23/06/15","03:50",0.0,21.1,93.5,1001.5,332.4,1.6,2.7,323.5,0.00,20.1,21.2,"03:42:32",1
"23/06/15","04:00",0.0,21.0,93.6,1001.9,331.2,1.3,2.0,338.9,0.00,20.0,21.3,"03:54:00",1
"23/06/15","04:10",0.0,21.0,93.7,1002.4,325.9,1.6,2.4,323.0,0.00,20.0,21.3,"04:00:40",1
"23/06/15","04:20",0.0,21.1,93.7,1002.2,305.9,1.1,2.1,319.0,0.00,20.1,21.1,"04:13:28",1
"23/06/15","04:30",0.0,21.0,93.8,1002.2,306.6,0.7,1.0,312.3,0.00,20.0,21.1,"04:20:08",1
"23/06/15","04:40",0.0,21.0,93.8,1002.4,287.8,0.3,1.2,314.1,0.00,20.0,21.2,"04:31:12",1
"23/06/15","04:50",0.2,21.0,93.9,1001.9,328.7,0.7,1.3,339.4,0.00,20.0,21.2,"04:43:28",1
"23/06/15","05:00",0.0,20.9,93.8,1002.4,292.6,0.7,1.1,326.7,0.00,19.9,21.1,"04:52:40",1
"23/06/15","05:10",0.0,20.7,93.9,1002.2,307.0,0.6,1.0,336.5,0.00,19.7,21.1,"05:06:00",1
"23/06/15","05:20",0.0,20.7,94.0,1002.4,309.7,1.0,1.2,347.8,0.00,19.7,21.2,"05:11:04",1
"23/06/15","05:30",0.0,20.6,94.1,1002.2,310.1,0.7,1.0,329.1,0.00,19.7,21.1,"05:28:32",1
"23/06/15","05:40",0.0,20.5,94.1,1002.2,309.7,0.6,0.9,322.4,0.00,19.6,21.0,"05:35:12",1
"23/06/15","05:50",0.0,20.4,94.2,1002.2,291.8,0.7,1.4,320.4,0.00,19.5,21.1,"05:49:04",1
"23/06/15","06:00",0.0,20.4,94.3,1002.2,293.0,1.0,1.4,308.5,0.00,19.5,21.2,"05:57:36",1
"23/06/15","06:10",0.0,20.4,94.5,1002.4,306.3,1.0,2.0,312.5,0.00,19.5,21.1,"06:02:16",1
"23/06/15","06:20",0.0,20.5,94.6,1002.4,306.4,0.8,1.4,338.4,0.00,19.6,21.2,"06:16:08",1
"23/06/15","06:30",0.0,20.6,94.7,1002.2,332.9,1.0,1.4,340.2,0.00,19.8,21.0,"06:23:52",1
"23/06/15","06:40",0.0,20.6,94.8,1002.6,311.4,1.2,2.2,340.6,0.01,19.8,21.1,"06:38:24",1
"23/06/15","06:50",0.0,20.8,94.9,1002.6,323.5,1.1,1.9,317.7,0.01,20.0,21.1,"06:41:12",1
"23/06/15","07:00",0.0,20.9,94.9,1002.6,323.8,0.6,1.4,326.8,0.02,20.1,21.0,"06:58:48",1
"23/06/15","07:10",0.0,21.0,94.9,1002.2,331.9,1.2,2.0,332.9,0.02,20.2,21.1,"07:08:08",1
"23/06/15","07:20",0.0,21.2,94.9,1002.2,342.3,0.7,1.6,349.0,0.02,20.4,21.1,"07:10:48",1
"23/06/15","07:30",0.0,21.3,94.9,1002.2,320.2,1.0,1.9,339.4,0.02,20.5,21.1,"07:24:16",1
"23/06/15","07:40",0.0,21.4,94.9,1002.2,307.3,1.1,2.2,334.3,0.04,20.6,21.0,"07:34:24",1
"23/06/15","07:50",0.0,21.7,94.8,1002.2,299.0,0.8,1.4,336.6,0.05,20.9,20.8,"07:49:12",1
"23/06/15","08:00",0.0,21.7,94.8,1002.2,308.2,1.1,2.0,296.6,0.07,20.9,21.0,"07:58:16",1
"23/06/15","08:10",0.0,22.0,94.7,1002.2,322.9,0.8,2.0,316.4,0.08,21.2,21.1,"08:02:40",1
"23/06/15","08:20",0.0,22.0,94.4,1002.2,5.4,0.6,1.6,351.3,0.07,21.1,20.8,"08:19:20",1
"23/06/15","08:30",0.0,22.1,94.2,1002.2,348.1,0.7,1.7,313.4,0.07,21.2,21.1,"08:22:00",1
"23/06/15","08:40",0.0,22.1,93.8,1002.2,338.3,0.7,1.7,337.8,0.07,21.1,21.0,"08:39:04",1
"23/06/15","08:50",0.0,22.2,93.3,1002.6,333.0,1.5,2.7,337.5,0.07,21.1,21.1,"08:44:16",1
"23/06/15","09:00",0.0,22.2,92.8,1002.4,304.7,1.5,2.2,323.0,0.08,21.0,21.1,"08:57:36",1
"23/06/15","09:10",0.0,22.5,92.1,1002.2,311.2,1.5,2.8,341.5,0.08,21.2,21.1,"09:03:36",1
"23/06/15","09:20",0.0,22.6,91.6,1002.4,317.3,1.6,3.2,320.2,0.09,21.2,21.0,"09:12:00",1
"23/06/15","09:30",0.0,22.9,90.7,1002.6,317.7,1.7,2.7,347.7,0.14,21.3,21.2,"09:24:48",1
"23/06/15","09:40",0.0,23.4,89.3,1002.2,322.9,1.6,2.9,312.7,0.18,21.6,21.0,"09:32:00",1
"23/06/15","09:50",0.0,23.5,87.6,1002.2,320.6,1.6,3.3,342.9,0.14,21.4,21.1,"09:40:08",1
"23/06/15","10:00",0.0,23.9,86.0,1002.2,315.1,1.3,2.4,308.1,0.12,21.5,21.0,"09:55:12",1
"23/06/15","10:10",0.0,24.0,84.8,1001.5,327.2,1.7,2.8,1.0,0.14,21.3,21.2,"10:04:32",1
"23/06/15","10:20",0.0,24.1,83.5,1001.7,307.3,1.5,2.5,309.1,0.17,21.2,21.2,"10:18:16",1
"23/06/15","10:30",0.0,24.2,83.1,1001.7,328.5,2.1,3.5,328.3,0.19,21.2,21.2,"10:27:12",1
"23/06/15","10:40",0.0,24.3,83.0,1001.2,332.0,2.5,4.0,344.3,0.21,21.3,20.9,"10:31:04",1
"23/06/15","10:50",0.0,24.5,82.5,1001.5,331.1,2.2,4.4,337.4,0.21,21.4,21.2,"10:40:08",1
"23/06/15","11:00",0.0,24.9,81.8,1001.2,308.5,1.3,2.7,335.5,0.18,21.6,21.1,"10:51:12",1
"23/06/15","11:10",0.0,25.5,81.2,1001.0,273.9,0.6,1.6,297.1,0.19,22.1,21.3,"11:00:24",1
"23/06/15","11:20",0.0,25.5,79.6,1001.2,239.7,1.5,3.3,231.1,0.23,21.8,21.2,"11:14:40",1
"23/06/15","11:30",0.0,25.3,78.9,1001.5,250.9,1.7,3.4,242.5,0.26,21.4,21.2,"11:22:56",1
"23/06/15","11:40",0.0,25.6,78.3,1000.8,233.1,1.5,3.6,244.0,0.27,21.6,21.2,"11:32:00",1
"23/06/15","11:50",0.0,25.8,77.0,1000.3,248.9,1.0,2.9,227.0,0.22,21.5,21.2,"11:41:52",1
"23/06/15","12:00",0.0,26.0,76.2,1001.0,251.5,0.6,1.7,350.9,0.15,21.5,21.2,"11:52:56",1
"23/06/15","12:10",0.0,25.7,75.7,1001.0,239.3,1.1,2.8,249.7,0.12,21.1,21.2,"12:08:48",1
"23/06/15","12:20",0.0,25.5,76.1,1001.0,244.3,1.3,3.4,224.2,0.12,21.0,21.5,"12:19:28",1
"23/06/15","12:30",0.0,25.2,77.4,1001.2,204.2,1.2,2.6,212.3,0.09,21.0,21.4,"12:21:36",1
"23/06/15","12:40",0.0,25.4,79.0,1001.5,210.2,1.2,2.4,205.2,0.11,21.5,21.4,"12:38:08",1
"23/06/15","12:50",0.0,25.3,80.1,1001.2,200.7,1.0,2.2,221.4,0.12,21.7,21.5,"12:43:44",1
"23/06/15","13:00",0.0,25.3,80.5,1001.0,172.6,1.0,2.2,221.3,0.13,21.7,21.4,"12:54:00",1
"23/06/15","13:10",0.0,25.4,80.7,1000.8,188.6,0.8,1.8,123.1,0.17,21.9,21.5,"13:00:16",1
"23/06/15","13:20",0.0,25.8,80.0,1000.3,205.0,0.7,2.4,235.5,0.17,22.1,21.6,"13:14:40",1
"23/06/15","13:30",0.0,25.9,78.7,1000.3,229.0,0.6,1.8,243.7,0.18,22.0,21.6,"13:26:40",1
"23/06/15","13:40",0.0,26.1,77.5,999.8,292.8,0.8,1.9,254.1,0.19,21.9,21.3,"13:33:52",1
"23/06/15","13:50",0.0,26.3,77.2,999.3,227.8,0.6,2.6,202.5,0.16,22.0,21.6,"13:46:00",1
"23/06/15","14:00",0.0,26.2,76.7,999.3,210.9,0.6,2.2,217.6,0.13,21.8,21.5,"13:50:40",1
"23/06/15","14:10",0.0,26.3,75.4,999.6,320.7,0.6,1.3,293.3,0.12,21.6,21.4,"14:00:56",1
"23/06/15","14:20",0.0,26.4,75.4,999.1,41.4,0.5,1.3,350.3,0.11,21.7,21.6,"14:10:16",1
"23/06/15","14:30",0.0,25.9,76.4,999.3,166.6,1.1,2.4,215.3,0.11,21.5,21.7,"14:28:56",1
"23/06/15","14:40",0.0,25.8,76.6,999.1,179.2,1.0,2.5,231.8,0.13,21.4,21.5,"14:36:56",1
"23/06/15","14:50",0.0,26.2,75.1,999.1,209.4,0.8,2.0,219.5,0.17,21.5,21.7,"14:44:56",1
"23/06/15","15:00",0.0,26.4,74.2,998.4,189.4,1.0,2.0,192.1,0.16,21.5,21.7,"14:56:48",1
"23/06/15","15:10",0.0,26.7,74.2,998.4,178.8,0.5,1.1,135.8,0.15,21.8,21.7,"15:06:48",1
"23/06/15","15:20",0.0,26.4,74.2,998.6,209.5,1.0,2.0,132.8,0.13,21.5,21.7,"15:16:56",1
"23/06/15","15:30",0.0,26.2,73.0,998.4,169.4,1.0,2.5,152.3,0.13,21.0,21.8,"15:27:04",1
"23/06/15","15:40",0.0,26.0,73.4,998.2,173.1,1.2,3.1,193.4,0.09,20.9,21.9,"15:38:00",1
"23/06/15","15:50",0.0,25.6,74.1,998.4,163.7,1.5,2.7,193.0,0.06,20.7,21.7,"15:46:40",1
"23/06/15","16:00",0.0,25.4,74.1,998.4,194.4,1.1,2.6,213.4,0.06,20.5,21.9,"15:57:36",1
"23/06/15","16:10",0.0,25.5,74.3,997.9,185.0,1.3,3.1,197.6,0.09,20.6,21.7,"16:05:04",1
"23/06/15","16:20",0.0,25.8,74.0,997.7,150.3,1.1,2.1,156.7,0.11,20.9,21.8,"16:14:56",1
"23/06/15","16:30",0.0,25.8,73.5,997.4,143.0,1.3,2.7,168.7,0.10,20.7,21.7,"16:21:04",1
"23/06/15","16:40",0.0,26.0,73.6,997.4,105.6,1.1,2.7,112.1,0.08,21.0,21.8,"16:33:04",1
"23/06/15","16:50",0.0,25.8,73.5,997.4,69.2,0.8,1.9,77.1,0.07,20.7,21.7,"16:42:40",1
"23/06/15","17:00",0.0,26.0,73.3,998.2,51.6,0.6,1.9,73.4,0.07,20.9,21.7,"16:55:28",1
"23/06/15","17:10",0.0,25.9,73.6,997.9,65.1,0.5,1.6,98.1,0.06,20.9,21.9,"17:01:36",1
"23/06/15","17:20",0.0,25.9,74.0,998.2,342.7,0.8,1.9,353.8,0.05,21.0,21.8,"17:10:32",1
"23/06/15","17:30",0.0,25.9,74.1,998.2,319.8,0.5,1.4,342.5,0.06,21.0,21.9,"17:22:24",1
"23/06/15","17:40",0.0,25.9,72.4,998.2,327.3,0.7,1.2,337.8,0.07,20.6,21.8,"17:32:16",1
"23/06/15","17:50",0.0,26.0,72.6,998.2,303.3,1.0,1.9,342.7,0.05,20.7,21.9,"17:45:12",1
"23/06/15","18:00",0.0,25.6,73.2,998.2,288.5,1.1,1.7,257.3,0.03,20.5,21.8,"17:58:16",1
"23/06/15","18:10",0.0,25.8,74.1,998.4,327.9,1.6,3.1,338.3,0.06,20.9,21.8,"18:07:36",1
"23/06/15","18:20",0.0,26.3,74.4,998.2,292.9,1.1,2.2,323.1,0.09,21.4,22.0,"18:12:56",1
"23/06/15","18:30",0.0,26.7,72.8,997.9,330.1,1.3,2.7,347.9,0.08,21.5,21.8,"18:25:52",1
"23/06/15","18:40",0.0,26.8,71.7,997.9,356.7,1.2,3.5,41.4,0.05,21.3,21.7,"18:38:24",1
"23/06/15","18:50",0.0,26.3,72.8,997.9,5.6,1.3,3.1,0.8,0.02,21.1,21.9,"18:49:20",1
"23/06/15","19:00",0.0,26.0,73.5,998.6,347.9,1.1,3.1,352.1,0.02,20.9,21.8,"18:51:28",1
"23/06/15","19:10",0.0,25.9,73.9,998.4,329.1,1.0,1.7,344.8,0.03,20.9,21.8,"19:00:32",1
"23/06/15","19:20",0.0,25.6,75.2,998.6,318.5,1.2,2.5,348.7,0.02,20.9,21.9,"19:14:56",1
"23/06/15","19:30",0.0,25.4,76.8,998.9,295.3,0.8,1.6,345.0,0.01,21.1,22.0,"19:20:48",1
"23/06/15","19:40",0.0,25.2,78.3,998.9,330.6,1.0,1.7,342.6,0.00,21.2,21.9,"19:34:24",1
"23/06/15","19:50",0.0,24.9,79.9,999.1,345.0,0.8,1.6,350.0,0.00,21.2,21.7,"19:45:12",1
"23/06/15","20:00",0.0,24.2,80.7,999.6,333.4,1.1,2.2,349.6,0.00,20.7,21.8,"19:58:56",1
"23/06/15","20:10",0.0,24.1,81.1,999.6,330.6,1.8,4.0,323.2,0.00,20.7,21.9,"20:04:16",1
"23/06/15","20:20",0.0,24.0,81.9,999.8,343.1,1.6,2.4,353.1,0.00,20.8,21.9,"20:12:40",1
"23/06/15","20:30",0.0,23.7,82.6,999.3,338.2,1.5,2.5,342.8,0.00,20.6,22.0,"20:25:28",1
"23/06/15","20:40",0.0,23.4,83.1,1000.0,328.3,1.8,3.1,334.4,0.00,20.4,21.8,"20:36:24",1
"23/06/15","20:50",0.0,23.3,83.3,1000.0,335.3,1.7,3.3,342.9,0.00,20.3,21.8,"20:41:12",1
"23/06/15","21:00",0.0,23.1,83.2,1000.5,317.8,1.7,4.7,341.9,0.00,20.1,22.1,"20:56:48",1
"23/06/15","21:10",0.0,23.0,82.7,1001.2,310.5,2.0,3.6,343.5,0.00,19.9,21.9,"21:02:16",1
"23/06/15","21:20",0.0,22.9,82.4,1000.5,310.1,0.7,1.8,337.2,0.00,19.8,21.7,"21:10:08",1
"23/06/15","21:30",0.0,22.7,82.8,1001.0,318.8,1.0,1.6,339.0,0.00,19.7,21.8,"21:20:02",1
"23/06/15","21:40",0.0,22.5,83.4,1001.0,305.5,1.3,2.6,321.3,0.00,19.6,21.8,"21:37:28",1
"23/06/15","21:50",0.0,22.5,83.8,1001.5,297.5,1.6,3.5,241.0,0.00,19.7,21.6,"21:43:20",1
"23/06/15","22:00",0.0,22.6,84.1,1001.2,326.4,1.6,3.7,347.9,0.00,19.8,21.7,"21:52:00",1
"23/06/15","22:10",0.0,22.6,85.0,1001.9,324.3,1.5,3.1,333.7,0.00,20.0,21.7,"22:08:56",1
"23/06/15","22:20",0.0,22.5,85.4,1001.9,309.8,2.3,6.5,347.6,0.00,20.0,21.7,"22:19:20",1
"23/06/15","22:30",0.0,22.4,85.5,1001.9,338.4,1.8,5.1,317.5,0.00,19.9,21.5,"22:20:40",1
"23/06/15","22:40",0.0,21.5,85.7,1001.9,340.3,2.0,4.4,332.1,0.00,19.0,21.7,"22:39:28",1
"23/06/15","22:50",0.0,21.2,86.2,1001.9,329.2,2.6,3.7,321.7,0.00,18.8,21.6,"22:41:04",1
"23/06/15","23:00",0.0,21.1,86.4,1002.2,338.3,2.5,4.9,347.1,0.00,18.8,21.7,"22:58:56",1
"23/06/15","23:10",0.0,20.9,86.9,1002.2,329.5,2.5,4.2,347.1,0.00,18.7,21.6,"23:00:08",1
"23/06/15","23:20",0.0,20.6,87.1,1001.9,331.4,2.6,4.2,332.1,0.00,18.4,21.6,"23:19:44",1
"23/06/15","23:30",0.0,20.5,87.3,1002.2,336.1,2.7,4.5,337.6,0.00,18.4,21.6,"23:23:44",1
"23/06/15","23:40",0.0,20.3,87.6,1002.2,342.8,1.8,3.7,337.9,0.00,18.2,21.7,"23:36:48",1
"23/06/15","23:50",0.0,20.1,88.0,1002.4,347.1,1.6,3.7,329.1,0.00,18.1,21.4,"23:41:12",1
"23/06/15","24:00",0.0,20.1,88.3,1002.6,351.4,1.5,3.1,345.9,0.00,18.1,21.5,"23:52:16",1
